Jackpot

Texas Poker Multi Jackpot System

Kini Telah hadir Jackpot SUPER ROYAL FLUSH

Kini Telah hadir Jackpot 2000 (khusus table VIP keatas).

Ikutilah global jackpot yang tersedia di system kami, dengan system jackpot terbaru dan pertama di indonesia, anda dapat membeli jackpot dengan harga 100 rupiah saja dan menangkan hadiahnya hingga puluhan juta rupiah.

Jackpot bukanlah suatu keharusan untuk dibeli, namun kami memberikan suatu fitur tambahan untuk member tercinta dari www.hokipoker.pw.

Terdapat tiga pilihan harga jackpot yang bisa anda beli yaitu :100,500,1000 dan 2000(khusus table VIP Keatas) rupiah.

Hadiah dari Multi jackpot system www.hokipoker.pw

  1. full house x 10 harga jackpot yang anda beli.
      (contoh:anda membeli 1000 maka:1000 X10 = 10.000)
  2. four of kind x 250 harga jackpot yang anda beli
      (contoh:anda membeli 1000 maka:1000 X250 = 250.000)
  3. Straight flush x 1200
      (contoh:anda membeli 1000 maka:1000 X1200 = 1.200.000)
  4. Royal flush x 10000 harga jackpot yang anda beli
      (contoh:anda membeli 1000 maka:1000 X10000 = 10.000.000)
  5. SUPER ROYAL FLUSH x 30000 harga jackpot yang anda beli
      (contoh:anda membeli 1000 maka:1000 X30000 = 30.000.000)

Kondisi kartu

  1. full house adalah kondisi kartu dimana kartu anda dan kartu tengah dengan total 7 kartu bisa mendapatkan nilai 5 kartu dengan kombinasi 1 tris(three of kind) dan 1 pair, contoh 3 kartu 10 dan 2 kartu 5
  2. Four of kind adalah kondisi kartu dimana kartu anda dan kartu tengah dengan total 7 kartu bisa mendapatkan nilai 5 kartu dengan kombinasi 4 kartu yang sama jumlah dan 1 kartu apapun juga contoh anda mendapatkan 4 buah kartu angka 3 dan 1 kartu apapun.
  3. Staright flush adalah kondisi kartu dimana kartu anda dan kartu tengah dengan total 7 kartu bisa mendapatkan nilai 5 kartu dengan kombinasi seri / staright dengan kembang yang sama contoh : urutan kartu dari angka 5, 6, 7, 8 , 9 10 dengan kembang yg sama misalnya as hati
  4. Royal flush adalah kondisi kartu dimana kartu anda dan kartu tengah dengan total 7 kartu bisa mendapatkan nilai 5 kartu dengan kombinasi seri / staright dengan kembang yang sama tetapi kartu tersebut haruslah dimulai dari 10. contoh 10, Queen, Jack, King dan aces dengan kembang yang sama
  5. Super Royal flush adalah kondisi kartu dimana Kedua kartu anda digabung dengan 3 kartu pertama meja haruslah royal flush. contoh kartu anda 10,Queen kembang sama dan 3 kartu pertama meja adalah Jack, King dan aces dengan kembang yang sama

Demikian adalah penjelasan dari Multi Jackpot www.hokipoker.pw terima kasih dan selamat bermain salam hoki dari kami

Texas Poker Jackpot Winner

TOP SUPER ROYAL FLUSH
No.TanggalNamaPriceWin
121/05 03:49EDAY777Super Royal flush3,000,000
221/05 03:35ADRB125ZSuper Royal flush3,000,000
321/05 02:32BANGZAKISuper Royal flush60,000,000
420/05 23:45GIBROK10Super Royal flush6,000,000
520/05 21:18QIPRU999Super Royal flush3,000,000
TOP ROYAL FLUSH
No.TanggalNamaPriceWin
121/05 11:31BWS1927Royal flush1,000,000
221/05 11:18JOS017Royal flush2,000,000
321/05 11:05TQALLAH12Royal flush1,000,000
421/05 11:00MALTANZRoyal flush2,000,000
521/05 10:34FD0A2D5CRoyal flush1,000,000
TOP STRAIGHT FLUSH
No.TanggalNamaPriceWin
121/05 11:55N4Y487Straight Flush600,000
221/05 11:54R1214NStraight Flush1,200,000
321/05 11:52JF5ZRAGHENStraight Flush1,200,000
421/05 11:49FANTER12Straight Flush600,000
521/05 11:44ANGKONG55Straight Flush240,000
LATEST JACKPOT
No.TanggalNamaPriceWin
121/05 11:55FANTER12Full House5,000
221/05 11:55HAMS0017Full House5,000
321/05 11:55FLXWJYYFull House20,000
421/05 11:55CLEON995Full House1,000
521/05 11:55SUNS99TFull House2,000
621/05 11:55LED999Full House10,000
721/05 11:55BARGOT71Full House2,000
821/05 11:55THEGOEL_75Full House500
921/05 11:55AADRBC1264Full House1,000
1021/05 11:55RONA535Full House1,000
1121/05 11:55GUGUN235Full House5,000
1221/05 11:55RJ_1717Four Of A Kind125,000
1321/05 11:55EFFENDI96Four Of A Kind50,000
1421/05 11:55N4Y487Straight Flush600,000
1521/05 11:55IBRA8892Full House10,000
1621/05 11:55T00NFull House2,000
1721/05 11:55NJKO00NXMHFull House10,000
1821/05 11:55HURINGFull House10,000
1921/05 11:55OKACBRFull House10,000
2021/05 11:55LIMBSFull House10,000
2121/05 11:55SLIVERSKYFull House1,000
2221/05 11:55PT4DHABIB129Full House2,000
2321/05 11:55SOMBETHFour Of A Kind50,000
2421/05 11:55DEA4T9CVWSFull House500
2521/05 11:55G3MBOL33Full House1,000
2621/05 11:55MIKOYFull House5,000
2721/05 11:55ANAKPAUDFull House2,000
2821/05 11:55CAOMINHZFull House1,000
2921/05 11:55LFIMPORTFull House1,000
3021/05 11:55MIDY22Full House2,000
3121/05 11:55TENDOYFull House2,000
3221/05 11:54PAK_IS87Full House10,000
3321/05 11:54P3L4N9I99Full House5,000
3421/05 11:54ADHEEEEFull House5,000
3521/05 11:54MAW4R79Full House5,000
3621/05 11:54KOSMAS07Full House5,000
3721/05 11:54ALEXS567Full House2,000
3821/05 11:54ROJAK131Full House1,000
3921/05 11:54TEMPALE86Full House1,000
4021/05 11:5474MBUL3Full House2,000
4121/05 11:54BURKI777Full House1,000
4221/05 11:54TENRITATTAFull House5,000
4321/05 11:54NATHANIAAFull House2,000
4421/05 11:54XZLZL001Full House2,000
4521/05 11:54RANGERXLTFull House20,000
4621/05 11:54MBLAWUT69Full House500
4721/05 11:54DWBTNPKR29Full House2,000
4821/05 11:54EC2CCB8CFour Of A Kind500,000
4921/05 11:54YULINA79Full House1,000
5021/05 11:54SUSAHOOMFull House5,000

Domino Multi Jackpot System

Ikutilah global jackpot yang tersedia di system kami, dengan system jackpot terbaru dan pertama di indonesia, anda dapat membeli jackpot dengan harga 100 rupiah saja dan menangkan hadiahnya hingga puluhan juta rupiah.

Jackpot bukanlah suatu keharusan untuk dibeli, namun kami memberikan suatu fitur tambahan untuk member tercinta dari www.hokipoker.pw.

Terdapat tiga pilihan harga jackpot yang bisa anda beli yaitu :100,500 dan 1000 rupiah.

Hadiah dari Multi jackpot system www.hokipoker.pw

  1. Murni Kecil x 50 harga jackpot yang anda beli.
      (contoh:anda membeli 1000 maka:1000 X 50 = 50.000)
  2. Murni Besar x 50 harga jackpot yang anda beli
      (contoh:anda membeli 1000 maka:1000 X 50 = 50.000)
  3. BALAK x 100 harga jackpot yang anda beli
      (contoh:anda membeli 1000 maka:1000 X 100 = 100.000)
  4. ENAM DEWA x 6666 harga jackpot yang anda beli
      (contoh:anda membeli 1000 maka:1000 X 6666 = 6.666.000)

Demikian adalah penjelasan dari Multi Jackpot www.hokipoker.pw terima kasih dan selamat bermain salam hoki dari kami

Domino Jackpot Winner

TOP ENAM DEWA
No.TanggalNamaPriceWin
121/05 11:26ROBOT565murni enam666,600
221/05 11:17M_MAIL777murni enam3,333,000
321/05 08:55CAKRA233murni enam666,600
421/05 08:19AGOGO8888murni enam3,333,000
521/05 06:27QQMUJUR66murni enam6,666,000
TOP BALAK
No.TanggalNamaPriceWin
121/05 11:52TUNGSI987balak10,000
221/05 11:51AGRA29balak50,000
321/05 11:47SON6099balak100,000
421/05 11:34RZK255balak50,000
521/05 11:26DALIJO10balak100,000
LATEST JACKPOT
No.TanggalNamaPriceWin
121/05 11:55TUYOOOK9murni besar50,000
221/05 11:55EORH43EZAEmurni besar25,000
321/05 11:54ZUKY005murni besar50,000
421/05 11:53THOM420lucky9950,000
521/05 11:53JUMANG88murni besar50,000
621/05 11:52R5WL2N8XQ7murni kecil50,000
721/05 11:52TUNGSI987balak10,000
821/05 11:51AGRA29balak50,000
921/05 11:50J9FW8ZOWK8murni kecil25,000
1021/05 11:49FIFASUMARImurni besar25,000
1121/05 11:47SON6099balak100,000
1221/05 11:47MEME1233murni kecil50,000
1321/05 11:46ERLA84murni kecil50,000
1421/05 11:45ENAM666_murni kecil50,000
1521/05 11:41ZACXmurni besar25,000
1621/05 11:41M_MAIL777murni besar50,000
1721/05 11:41PARNO8murni kecil25,000
1821/05 11:41KONYING87murni besar5,000
1921/05 11:41GENK18murni besar50,000
2021/05 11:40RIZIQ9murni besar50,000
2121/05 11:38RULITAlucky99200,000
2221/05 11:37BLUEDEVIL8murni besar50,000
2321/05 11:36JUGUL112lucky99700,000
2421/05 11:36BANDIT1993murni kecil5,000
2521/05 11:36KUMINTA9murni kecil25,000
2621/05 11:36MDP27murni kecil50,000
2721/05 11:35OBC7187murni kecil50,000
2821/05 11:34RZK255balak50,000
2921/05 11:34RZL1927lucky992,500
3021/05 11:33M1R4E989murni besar50,000
3121/05 11:32METALICA88murni besar25,000
3221/05 11:31KALAH489murni kecil25,000
3321/05 11:30METALICA88murni besar25,000
3421/05 11:29EORH43EZAEmurni besar25,000
3521/05 11:29ALANG13murni kecil5,000
3621/05 11:26VANHOUTENmurni besar5,000
3721/05 11:26DALIJO10balak100,000
3821/05 11:26SHIPSEKImurni kecil50,000
3921/05 11:26ROBOT565murni enam666,600
4021/05 11:25BACOT69balak100,000
4121/05 11:24UWOK1213murni besar50,000
4221/05 11:24TUTOBULUREBUNGmurni besar25,000
4321/05 11:23EORH43EZAEmurni besar25,000
4421/05 11:23OKTO65balak50,000
4521/05 11:20RAEFAL16murni besar50,000
4621/05 11:19SOSIM8899murni besar25,000
4721/05 11:19INCUARAGONmurni kecil50,000
4821/05 11:18DM82997murni besar25,000
4921/05 11:17M_MAIL777murni enam3,333,000
5021/05 11:16LOKOSANmurni besar5,000

Ceme Multi Jackpot System

Jackpot dilihat dari gabungan kartu pemain dengan kartu bandar. Bandar harus membeli jackpot sebanyak jumlah player yang sedang duduk. Sebagai contoh bila terdapat 3 pemain duduk bermain, dan bandar memutuskan untuk membeli jackpot Rp 1.000, maka pada periode tersebut bandar akan membeli jackpot sebanyak 3xRp1.000 = Rp3.000.

Jackpot bukanlah suatu keharusan untuk dibeli, namun kami memberikan suatu fitur tambahan untuk member tercinta dari www.hokipoker.pw.

Terdapat tiga pilihan harga jackpot yang bisa anda beli yaitu :100,500 dan 1000 rupiah.

Hadiah dari Multi jackpot system www.hokipoker.pw

  1. Murni Kecil x 50 harga jackpot yang anda beli.
      (contoh:anda membeli 1000 maka:1000 X 50 = 50.000)
  2. Murni Besar x 50 harga jackpot yang anda beli
      (contoh:anda membeli 1000 maka:1000 X 50 = 50.000)
  3. BALAK x 200 harga jackpot yang anda beli
      (contoh:anda membeli 1000 maka:1000 X 200 = 200.000)
  4. ENAM DEWA x 6666 harga jackpot yang anda beli
      (contoh:anda membeli 1000 maka:1000 X 6666 = 6.666.000)

Demikian adalah penjelasan dari Multi Jackpot www.hokipoker.pw terima kasih dan selamat bermain salam hoki dari kami

Ceme Jackpot Winner

TOP ENAM DEWA
No.TanggalNamaPriceWin
121/05 11:24P4L9ZD0MYEmurni enam666,600
221/05 11:24RIZWAN1928murni enam6,666,000
321/05 11:21ZX456murni enam666,600
421/05 11:21GILENIAmurni enam6,666,000
521/05 11:09BANGRAHMADmurni enam6,666,000
TOP BALAK
No.TanggalNamaPriceWin
121/05 11:55G0J3K111balak20,000
221/05 11:55WESWE01balak200,000
321/05 11:54MJ7Q3B9F61balak100,000
421/05 11:54FS23balak100,000
521/05 11:53ALANDALAbalak20,000
LATEST JACKPOT
No.TanggalNamaPriceWin
121/05 11:55OVRT122murni kecil50,000
221/05 11:55G0J3K111balak20,000
321/05 11:55LB992508murni besar50,000
421/05 11:55KARBOLmurni besar50,000
521/05 11:55SANGKUT17murni kecil50,000
621/05 11:55WESWE01balak200,000
721/05 11:55ZUWLA9EEAWmurni besar50,000
821/05 11:55STEPLERmurni besar50,000
921/05 11:55RAZZAQ123murni kecil50,000
1021/05 11:54KASI_UANG8murni kecil50,000
1121/05 11:54KCP360murni kecil50,000
1221/05 11:54DKI18murni besar50,000
1321/05 11:54CRAZY_NINEmurni besar25,000
1421/05 11:54KATAM99murni kecil50,000
1521/05 11:54TOR578murni kecil50,000
1621/05 11:54MJ7Q3B9F61balak100,000
1721/05 11:54FS23balak100,000
1821/05 11:54ZUWLA9EEAWmurni besar50,000
1921/05 11:54SAADAH22murni besar50,000
2021/05 11:54SAPASANG12murni kecil5,000
2121/05 11:54BLAN777murni kecil5,000
2221/05 11:53ALANDALAbalak20,000
2321/05 11:53FAH997murni kecil50,000
2421/05 11:53KASTO9murni kecil50,000
2521/05 11:53NOVA_77murni besar5,000
2621/05 11:53AGISMALIKbalak200,000
2721/05 11:53VBB62balak200,000
2821/05 11:53BERKIBAR83murni kecil25,000
2921/05 11:53FAH997murni besar50,000
3021/05 11:53MBO368murni kecil50,000
3121/05 11:53IBRAHIEMPAmurni kecil5,000
3221/05 11:53SOLEBOmurni kecil25,000
3321/05 11:53DN4DKUCENG11murni kecil50,000
3421/05 11:53BEDJO110balak200,000
3521/05 11:53JAYENKK89balak100,000
3621/05 11:52BERKOH12murni kecil50,000
3721/05 11:52LIE56murni kecil5,000
3821/05 11:52J9CK8NF453murni besar50,000
3921/05 11:52ABABILL11murni besar5,000
4021/05 11:52IBP89008balak20,000
4121/05 11:52DENI78NPbalak100,000
4221/05 11:52POROT54murni besar50,000
4321/05 11:52ARLANAFANmurni kecil50,000
4421/05 11:52QICK02murni kecil25,000
4521/05 11:52BBYUNGmurni kecil50,000
4621/05 11:52ZUWLA9EEAWmurni kecil50,000
4721/05 11:52TONI1STmurni kecil25,000
4821/05 11:52KONCCEK1murni kecil5,000
4921/05 11:51CELMIK69murni besar50,000
5021/05 11:51OVRT122murni kecil50,000